Find Starlink 11413

NORAD ID: 62593 Int'l Des: 2025-008 Owner: SPXS Country: US Constellation: starlink operational
LEOCIRCULAR

当前视图

正在加载3D地球...

About Starlink 11413

Starlink 11413 (NORAD 62593) is a starlink constellation satellite (v2 mini d2c) launched Jan 13, 2025 by SPXS of US. It operates in LEO, CIRCULAR orbit with a mass of 960.00 kg.

关于 Starlink 11413

正在加载描述...

即将过境

Passes for default location (London). Set your location on the main map for personalized predictions.

高度历史

Loading altitude history...

两行轨道根数

1 62593U 25008G 26169.48540192 .00127063 00000-0 97862-3 0 9991
2 62593 42.9986 238.8796 0000888 246.9631 113.1143 15.70841101 83039
Epoch: Jun 18, 2026 • Age: 36 hours

当前状态

高度 354.8 km
速度 7.70 km/s
星下点 2.50°N, 146.66°E
发射日期 Jan 13, 2025
运行时间 1.4 years
类型 internet

技术详情

分类 Payload
质量 960.00 kg
干质量 910.00 kg
总质量 960.00 kg
长度 0.30 m
直径 4.10 m
跨度 29.00 m
形状 Box + pan
制造商 SPXS
平台类型 Starlink V2MD
阶段状态 In Orbit
所有者/国家 SPXS/US

Most Searched